TSC602 CYUL-LFRS

Flight info

Callsign TSC602
Flight time 6h 24m
Altitude 33000
Route SUXET DCT NOVUN DCT ESRAM DCT RABIK Q951 ANTOV DCT MIILS N575A TUDEP/M076F330 DCT 52N050W 53N040W 52N030W 50N020W DCT BEDRA DCT NASBA DCT TAKAS/N0437F330 DCT ALUTA DCT KORER/N0360F190 R66 RIMON
Aircraft A21N/M-SDE2E3FGHIJ1RWXY/LB1

Departure

Time 2026-05-07 23:01
Airport Montreal / Pierre Elliott Trudeau International Airport (CYUL)

Arrival

Time 2026-05-08 05:25
Airport Nantes Atlantique Airport (LFRS)
Time Latitude Longitude Altitude Speed Heading
2026-05-07 21:42 45.45901 -73.75846 110 ft 0 kts 106°
2026-05-07 22:45 45.45904 -73.75860 110 ft 3 kts 106°
2026-05-07 22:45 45.45910 -73.75888 110 ft 2 kts 106°
2026-05-07 22:45 45.45913 -73.75912 110 ft 3 kts 83°
2026-05-07 22:45 45.45907 -73.75934 110 ft 3 kts 37°
2026-05-07 22:46 45.45890 -73.75945 110 ft 4 kts
2026-05-07 22:46 45.45874 -73.75944 110 ft 0 kts 349°
2026-05-07 22:49 45.45878 -73.75945 110 ft 2 kts 349°
2026-05-07 22:49 45.45900 -73.75952 109 ft 3 kts 346°
2026-05-07 22:49 45.45926 -73.75954 110 ft 4 kts 357°
2026-05-07 22:49 45.45956 -73.75956 110 ft 5 kts 358°
2026-05-07 22:50 45.45990 -73.75958 108 ft 5 kts 358°
2026-05-07 22:50 45.46028 -73.75959 110 ft 6 kts 358°
2026-05-07 22:50 45.46069 -73.75961 109 ft 6 kts 358°
2026-05-07 22:50 45.46113 -73.75961 108 ft 7 kts
2026-05-07 22:51 45.46131 -73.75919 107 ft 7 kts 105°
2026-05-07 22:51 45.46124 -73.75847 107 ft 8 kts 91°
2026-05-07 22:51 45.46126 -73.75768 106 ft 8 kts 86°
2026-05-07 22:51 45.46130 -73.75682 107 ft 9 kts 85°
2026-05-07 22:52 45.46135 -73.75589 107 ft 10 kts 86°
2026-05-07 22:52 45.46138 -73.75489 107 ft 10 kts 88°
2026-05-07 22:52 45.46141 -73.75382 107 ft 11 kts 88°
2026-05-07 22:52 45.46144 -73.75269 106 ft 12 kts 88°
2026-05-07 22:53 45.46147 -73.75150 107 ft 12 kts 88°
2026-05-07 22:53 45.46150 -73.75024 109 ft 13 kts 88°
2026-05-07 22:53 45.46153 -73.74890 109 ft 14 kts 88°
2026-05-07 22:53 45.46157 -73.74753 108 ft 14 kts 88°
2026-05-07 22:54 45.46155 -73.74610 109 ft 15 kts 108°
2026-05-07 22:54 45.46126 -73.74475 107 ft 15 kts 85°
2026-05-07 22:54 45.46128 -73.74323 107 ft 15 kts 86°
2026-05-07 22:54 45.46136 -73.74169 109 ft 16 kts 86°
2026-05-07 22:55 45.46168 -73.74021 110 ft 16 kts 46°
2026-05-07 22:55 45.46252 -73.73908 110 ft 17 kts 42°
2026-05-07 22:55 45.46340 -73.73796 112 ft 17 kts 42°
2026-05-07 22:55 45.46430 -73.73681 112 ft 18 kts 42°
2026-05-07 22:56 45.46520 -73.73565 114 ft 18 kts 42°
2026-05-07 22:56 45.46613 -73.73444 115 ft 18 kts 46°
2026-05-07 22:56 45.46701 -73.73313 115 ft 18 kts 46°
2026-05-07 22:56 45.46797 -73.73189 117 ft 19 kts 39°
2026-05-07 22:57 45.46898 -73.73070 121 ft 19 kts 40°
2026-05-07 22:57 45.46999 -73.72948 121 ft 19 kts 40°
2026-05-07 22:57 45.47097 -73.72817 119 ft 19 kts 44°
2026-05-07 22:57 45.47195 -73.72683 122 ft 20 kts 44°
2026-05-07 22:58 45.47291 -73.72552 122 ft 20 kts 44°
2026-05-07 22:58 45.47391 -73.72416 125 ft 20 kts 44°
2026-05-07 22:58 45.47492 -73.72279 123 ft 20 kts 43°
2026-05-07 22:58 45.47596 -73.72147 124 ft 20 kts 43°
2026-05-07 22:59 45.47700 -73.72009 122 ft 20 kts 43°
2026-05-07 22:59 45.47778 -73.71907 123 ft 14 kts 43°
2026-05-07 22:59 45.47797 -73.71791 123 ft 13 kts 120°
2026-05-07 22:59 45.47743 -73.71680 127 ft 14 kts 131°
2026-05-07 23:00 45.47676 -73.71644 130 ft 10 kts 203°
2026-05-07 23:00 45.47651 -73.71672 130 ft 0 kts 221°
2026-05-07 23:00 45.47641 -73.71684 126 ft 12 kts 221°
2026-05-07 23:00 45.47426 -73.71966 125 ft 75 kts 222°
2026-05-07 23:01 45.46876 -73.72686 121 ft 138 kts 222°
2026-05-07 23:01 45.46049 -73.73803 245 ft 177 kts 224°
2026-05-07 23:01 45.45124 -73.75040 912 ft 183 kts 225°
2026-05-07 23:01 45.44206 -73.76291 1816 ft 177 kts 225°
2026-05-07 23:02 45.43341 -73.77461 2479 ft 171 kts 226°
2026-05-07 23:02 45.42461 -73.78604 2973 ft 172 kts 216°
2026-05-07 23:02 45.41285 -73.79088 3274 ft 189 kts 179°
2026-05-07 23:02 45.39990 -73.78418 3518 ft 211 kts 144°
2026-05-07 23:03 45.39056 -73.76718 3873 ft 228 kts 119°
2026-05-07 23:03 45.38329 -73.74632 4201 ft 245 kts 116°
2026-05-07 23:03 45.37573 -73.72395 4460 ft 264 kts 116°
2026-05-07 23:03 45.36760 -73.69987 4935 ft 275 kts 116°
2026-05-07 23:04 45.35941 -73.67488 5652 ft 280 kts 112°
2026-05-07 23:04 45.35515 -73.64776 6384 ft 281 kts 96°
2026-05-07 23:04 45.35332 -73.61978 7080 ft 285 kts 95°
2026-05-07 23:04 45.35164 -73.59169 7736 ft 287 kts 95°
2026-05-07 23:05 45.34985 -73.56362 8352 ft 289 kts 95°
2026-05-07 23:05 45.34794 -73.53503 8948 ft 292 kts 96°
2026-05-07 23:05 45.34592 -73.50596 9568 ft 296 kts 96°
2026-05-07 23:05 45.34382 -73.47668 10165 ft 301 kts 96°
2026-05-07 23:06 45.34162 -73.44654 10491 ft 313 kts 96°
2026-05-07 23:06 45.33928 -73.41492 10748 ft 328 kts 97°
2026-05-07 23:06 45.33701 -73.38234 10970 ft 333 kts 96°
2026-05-07 23:06 45.33466 -73.34916 11179 ft 342 kts 96°
2026-05-07 23:07 45.33213 -73.31541 11381 ft 354 kts 96°
2026-05-07 23:07 45.32946 -73.27991 11597 ft 368 kts 97°
2026-05-07 23:07 45.32669 -73.24347 12037 ft 373 kts 96°
2026-05-07 23:07 45.32391 -73.20649 12599 ft 376 kts 96°
2026-05-07 23:08 45.32110 -73.16940 13132 ft 379 kts 96°
2026-05-07 23:08 45.31825 -73.13234 13660 ft 383 kts 97°
2026-05-07 23:08 45.31539 -73.09411 14167 ft 386 kts 96°
2026-05-07 23:08 45.31259 -73.05594 14650 ft 390 kts 96°
2026-05-07 23:09 45.30972 -73.01766 15108 ft 393 kts 97°
2026-05-07 23:09 45.30680 -72.97932 15543 ft 396 kts 97°
2026-05-07 23:09 45.30374 -72.93982 15992 ft 399 kts 97°
2026-05-07 23:09 45.30074 -72.90086 16432 ft 402 kts 97°
2026-05-07 23:10 45.29764 -72.86103 16905 ft 410 kts 97°
2026-05-07 23:10 45.29451 -72.82085 17458 ft 410 kts 97°
2026-05-07 23:10 45.29231 -72.78003 17891 ft 414 kts 91°
2026-05-07 23:10 45.29341 -72.73900 18308 ft 418 kts 88°
2026-05-07 23:11 45.29504 -72.69798 18704 ft 421 kts 88°
2026-05-07 23:11 45.29673 -72.65624 19099 ft 424 kts 88°
2026-05-07 23:11 45.29842 -72.61438 19488 ft 427 kts 87°
2026-05-07 23:11 45.30068 -72.57219 19856 ft 429 kts 86°
2026-05-07 23:12 45.30302 -72.52956 20236 ft 433 kts 86°
2026-05-07 23:12 45.30534 -72.48684 20602 ft 436 kts 86°
2026-05-07 23:12 45.30770 -72.44419 20965 ft 439 kts 86°
2026-05-07 23:12 45.31009 -72.40086 21314 ft 441 kts 86°
2026-05-07 23:13 45.31246 -72.35714 21652 ft 444 kts 86°
2026-05-07 23:13 45.31483 -72.31306 21988 ft 448 kts 87°
2026-05-07 23:13 45.31722 -72.26881 22345 ft 450 kts 87°
2026-05-07 23:13 45.31958 -72.22433 22686 ft 452 kts 87°
2026-05-07 23:14 45.32191 -72.17961 22969 ft 454 kts 87°
2026-05-07 23:14 45.32421 -72.13524 23252 ft 457 kts 87°
2026-05-07 23:14 45.32651 -72.08990 23564 ft 459 kts 87°
2026-05-07 23:14 45.32884 -72.04462 23864 ft 461 kts 87°
2026-05-07 23:15 45.33117 -71.99896 24151 ft 463 kts 87°
2026-05-07 23:15 45.33350 -71.95309 24417 ft 466 kts 88°
2026-05-07 23:15 45.33582 -71.90698 24680 ft 469 kts 88°
2026-05-07 23:15 45.33853 -71.86059 24952 ft 472 kts 84°
2026-05-07 23:16 45.34330 -71.81435 25226 ft 474 kts 83°
2026-05-07 23:16 45.34839 -71.76783 25493 ft 477 kts 82°
2026-05-07 23:16 45.35344 -71.72163 25729 ft 479 kts 83°
2026-05-07 23:16 45.35859 -71.67471 25968 ft 480 kts 83°
2026-05-07 23:17 45.36371 -71.62744 26220 ft 483 kts 83°
2026-05-07 23:17 45.36876 -71.58011 26446 ft 485 kts 83°
2026-05-07 23:17 45.37384 -71.53260 26673 ft 487 kts 83°
2026-05-07 23:17 45.37895 -71.48539 26905 ft 489 kts 83°
2026-05-07 23:18 45.38420 -71.43716 27126 ft 491 kts 83°
2026-05-07 23:18 45.38935 -71.38911 27348 ft 493 kts 83°
2026-05-07 23:18 45.39446 -71.34085 27554 ft 496 kts 83°
2026-05-07 23:18 45.39961 -71.29204 27782 ft 498 kts 83°
2026-05-07 23:19 45.40303 -71.25971 27955 ft 499 kts 83°
2026-05-07 23:19 45.40990 -71.19470 28305 ft 499 kts 83°
2026-05-07 23:19 45.41501 -71.14573 28576 ft 499 kts 83°
2026-05-07 23:19 45.41836 -71.11325 28741 ft 499 kts 84°
2026-05-07 23:20 45.42355 -71.06446 28980 ft 499 kts 82°
2026-05-07 23:20 45.43252 -71.01644 29171 ft 503 kts 70°
2026-05-07 23:20 45.45264 -70.95695 29496 ft 503 kts 61°
2026-05-07 23:20 45.46419 -70.92760 29646 ft 503 kts 60°
2026-05-07 23:21 45.48127 -70.88470 29853 ft 503 kts 60°
2026-05-07 23:21 45.49849 -70.84115 30047 ft 503 kts 61°
2026-05-07 23:21 45.51555 -70.79755 30214 ft 503 kts 61°
2026-05-07 23:21 45.53240 -70.75365 30391 ft 504 kts 62°
2026-05-07 23:22 45.54919 -70.70993 30558 ft 503 kts 62°
2026-05-07 23:22 45.56606 -70.66610 30750 ft 504 kts 61°
2026-05-07 23:22 45.58300 -70.62220 30816 ft 505 kts 61°
2026-05-07 23:23 45.61683 -70.53425 30769 ft 505 kts 62°
2026-05-07 23:23 45.65035 -70.44661 30749 ft 505 kts 62°
2026-05-07 23:24 45.68403 -70.35860 30739 ft 505 kts 62°
2026-05-07 23:24 45.71765 -70.27032 30738 ft 505 kts 62°
2026-05-07 23:25 45.75113 -70.18196 30734 ft 504 kts 62°
2026-05-07 23:25 45.78457 -70.09365 30729 ft 504 kts 62°
2026-05-07 23:26 45.81800 -70.00501 30731 ft 503 kts 62°
2026-05-07 23:26 45.85147 -69.91730 30730 ft 504 kts 62°
2026-05-07 23:27 45.90122 -69.78428 30731 ft 504 kts 62°
2026-05-07 23:27 45.93427 -69.69587 30730 ft 505 kts 62°
2026-05-07 23:28 45.96748 -69.60680 30734 ft 504 kts 62°
2026-05-07 23:28 46.00033 -69.51819 30736 ft 505 kts 63°
2026-05-07 23:29 46.03338 -69.42891 30722 ft 502 kts 63°
2026-05-07 23:29 46.06614 -69.34013 30722 ft 501 kts 63°
2026-05-07 23:30 46.09853 -69.25176 30722 ft 502 kts 63°
2026-05-07 23:30 46.13111 -69.16261 30722 ft 501 kts 63°
2026-05-07 23:31 46.16336 -69.07317 30721 ft 501 kts 63°
2026-05-07 23:31 46.19534 -68.98456 30722 ft 501 kts 63°
2026-05-07 23:32 46.22790 -68.89494 30720 ft 501 kts 63°
2026-05-07 23:32 46.26046 -68.80591 30719 ft 501 kts 63°
2026-05-07 23:33 46.29254 -68.71687 30718 ft 502 kts 63°
2026-05-07 23:33 46.32476 -68.62724 30715 ft 502 kts 63°
2026-05-07 23:34 46.35672 -68.53775 30701 ft 502 kts 63°
2026-05-07 23:34 46.38885 -68.44775 30701 ft 503 kts 64°
2026-05-07 23:35 46.42085 -68.35766 30701 ft 503 kts 64°
2026-05-07 23:35 46.45280 -68.26739 30699 ft 503 kts 64°
2026-05-07 23:36 46.48473 -68.17684 30701 ft 504 kts 64°
2026-05-07 23:36 46.51630 -68.08665 30700 ft 504 kts 64°
2026-05-07 23:37 46.54822 -67.99567 30701 ft 503 kts 64°
2026-05-07 23:37 46.57972 -67.90527 30699 ft 503 kts 64°
2026-05-07 23:38 46.61133 -67.81444 30701 ft 504 kts 64°
2026-05-07 23:38 46.64298 -67.72349 30700 ft 502 kts 64°
2026-05-07 23:39 46.67432 -67.63241 30695 ft 502 kts 64°
2026-05-07 23:39 46.70549 -67.54204 30687 ft 501 kts 64°
2026-05-07 23:40 46.73678 -67.45116 30688 ft 501 kts 64°
2026-05-07 23:40 46.76776 -67.36043 30691 ft 500 kts 65°
2026-05-07 23:41 46.79868 -67.26954 30689 ft 500 kts 65°
2026-05-07 23:41 46.82960 -67.17861 30681 ft 499 kts 65°
2026-05-07 23:42 46.86036 -67.08759 30683 ft 499 kts 65°
2026-05-07 23:42 46.89324 -66.99892 30676 ft 499 kts 60°
2026-05-07 23:43 46.92851 -66.91121 30674 ft 499 kts 60°
2026-05-07 23:43 46.96335 -66.82387 30668 ft 499 kts 60°
2026-05-07 23:44 46.99836 -66.73599 30668 ft 498 kts 60°
2026-05-07 23:44 47.03346 -66.64821 30669 ft 498 kts 60°
2026-05-07 23:45 47.06807 -66.56063 30671 ft 500 kts 61°
2026-05-07 23:45 47.10260 -66.47252 30667 ft 498 kts 61°
2026-05-07 23:46 47.13743 -66.38430 30667 ft 496 kts 60°
2026-05-07 23:46 47.17184 -66.29678 30675 ft 497 kts 61°
2026-05-07 23:47 47.20636 -66.20834 30668 ft 497 kts 61°
2026-05-07 23:47 47.24061 -66.11992 30671 ft 497 kts 62°
2026-05-07 23:48 47.27433 -66.03159 30675 ft 496 kts 62°
2026-05-07 23:48 47.30844 -65.94327 30672 ft 495 kts 62°
2026-05-07 23:49 47.34264 -65.85514 30669 ft 495 kts 62°
2026-05-07 23:49 47.37660 -65.76653 30669 ft 495 kts 62°
2026-05-07 23:50 47.41029 -65.67841 30670 ft 495 kts 62°
2026-05-07 23:50 47.44428 -65.58992 30670 ft 495 kts 62°
2026-05-07 23:51 47.47789 -65.50124 30668 ft 494 kts 62°
2026-05-07 23:51 47.51134 -65.41298 30670 ft 494 kts 62°
2026-05-07 23:52 47.54504 -65.32408 30672 ft 494 kts 62°
2026-05-07 23:52 47.57830 -65.23587 30671 ft 493 kts 63°
2026-05-07 23:53 47.61182 -65.14662 30670 ft 493 kts 63°
2026-05-07 23:53 47.64498 -65.05832 30663 ft 492 kts 63°
2026-05-07 23:54 47.67825 -64.96974 30661 ft 491 kts 63°
2026-05-07 23:54 47.71105 -64.88122 30660 ft 490 kts 63°
2026-05-07 23:55 47.74379 -64.79238 30660 ft 489 kts 63°
2026-05-07 23:55 47.77659 -64.70386 30659 ft 487 kts 63°
2026-05-07 23:56 47.80935 -64.61568 30658 ft 486 kts 63°
2026-05-07 23:56 47.84158 -64.52746 30652 ft 484 kts 64°
2026-05-07 23:57 47.87363 -64.43960 30684 ft 480 kts 64°
2026-05-07 23:57 47.90552 -64.35187 30657 ft 481 kts 64°
2026-05-07 23:58 47.93740 -64.26427 30650 ft 479 kts 64°
2026-05-07 23:58 47.96906 -64.17724 30649 ft 479 kts 64°
2026-05-07 23:59 48.00065 -64.08980 30639 ft 478 kts 64°
2026-05-07 23:59 48.03216 -64.00224 30639 ft 478 kts 65°
2026-05-08 00:00 48.06362 -63.91449 30639 ft 478 kts 65°
2026-05-08 00:00 48.09473 -63.82681 30641 ft 478 kts 65°
2026-05-08 00:01 48.12585 -63.73936 30639 ft 478 kts 65°
2026-05-08 00:01 48.15731 -63.65124 30642 ft 478 kts 65°
2026-05-08 00:02 48.18832 -63.56356 30640 ft 478 kts 65°
2026-05-08 00:02 48.21947 -63.47506 30642 ft 479 kts 65°
2026-05-08 00:03 48.25057 -63.38653 30640 ft 480 kts 65°
2026-05-08 00:03 48.28140 -63.29843 30640 ft 480 kts 65°
2026-05-08 00:04 48.31246 -63.20952 30640 ft 480 kts 66°
2026-05-08 00:04 48.34344 -63.12048 30641 ft 481 kts 66°
2026-05-08 00:05 48.36914 -63.04618 30639 ft 481 kts 66°
2026-05-08 00:05 48.40005 -62.95672 30640 ft 482 kts 66°
2026-05-08 00:06 48.43067 -62.86735 30639 ft 485 kts 67°
2026-05-08 00:06 48.46177 -62.77634 30639 ft 492 kts 65°
2026-05-08 00:07 48.49367 -62.68378 30649 ft 499 kts 65°
2026-05-08 00:07 48.52540 -62.59076 30645 ft 499 kts 65°
2026-05-08 00:08 48.55670 -62.49778 30624 ft 499 kts 65°
2026-05-08 00:08 48.58829 -62.40411 30632 ft 499 kts 65°
2026-05-08 00:09 48.61963 -62.31114 30622 ft 498 kts 65°
2026-05-08 00:09 48.65102 -62.21758 30620 ft 499 kts 65°
2026-05-08 00:10 48.68253 -62.12409 30611 ft 498 kts 65°
2026-05-08 00:10 48.71385 -62.03039 30615 ft 496 kts 65°
2026-05-08 00:11 48.74479 -61.93715 30616 ft 497 kts 65°
2026-05-08 00:11 48.77571 -61.84339 30613 ft 496 kts 66°
2026-05-08 00:12 48.80657 -61.75004 30608 ft 494 kts 65°
2026-05-08 00:12 48.83725 -61.65660 30630 ft 493 kts 66°
2026-05-08 00:13 48.86755 -61.56383 30631 ft 493 kts 66°
2026-05-08 00:13 48.89806 -61.47032 30631 ft 493 kts 66°
2026-05-08 00:14 48.92836 -61.37686 30631 ft 492 kts 66°
2026-05-08 00:14 48.95847 -61.28387 30632 ft 491 kts 66°
2026-05-08 00:15 48.98858 -61.19049 30632 ft 490 kts 66°
2026-05-08 00:15 49.01836 -61.09783 30616 ft 489 kts 67°
2026-05-08 00:16 49.04822 -61.00443 30623 ft 489 kts 67°
2026-05-08 00:16 49.07795 -60.91119 30619 ft 489 kts 67°
2026-05-08 00:17 49.10740 -60.81839 30612 ft 488 kts 67°
2026-05-08 00:17 49.13681 -60.72514 30626 ft 486 kts 67°
2026-05-08 00:18 49.16625 -60.63201 30614 ft 487 kts 67°
2026-05-08 00:18 49.19572 -60.53849 30630 ft 486 kts 68°
2026-05-08 00:19 49.22472 -60.44517 30632 ft 485 kts 68°
2026-05-08 00:19 49.25359 -60.35245 30632 ft 484 kts 68°
2026-05-08 00:20 49.28248 -60.25934 30631 ft 482 kts 68°
2026-05-08 00:20 49.31126 -60.16668 30630 ft 481 kts 68°
2026-05-08 00:21 49.33971 -60.07455 30619 ft 479 kts 69°
2026-05-08 00:21 49.36814 -59.98203 30632 ft 479 kts 69°
2026-05-08 00:22 49.39641 -59.88974 30642 ft 478 kts 69°
2026-05-08 00:22 49.42458 -59.79715 30639 ft 477 kts 69°
2026-05-08 00:23 49.45252 -59.70509 30642 ft 477 kts 69°
2026-05-08 00:23 49.48056 -59.61253 30647 ft 477 kts 69°
2026-05-08 00:24 49.50835 -59.52028 30650 ft 478 kts 69°
2026-05-08 00:24 49.53620 -59.42733 30649 ft 478 kts 69°
2026-05-08 00:25 49.56414 -59.33412 30655 ft 478 kts 69°
2026-05-08 00:25 49.59184 -59.24116 30660 ft 479 kts 69°
2026-05-08 00:26 49.61966 -59.14736 30662 ft 480 kts 69°
2026-05-08 00:26 49.64734 -59.05369 30661 ft 480 kts 69°
2026-05-08 00:27 49.67488 -58.96025 30671 ft 480 kts 69°
2026-05-08 00:27 49.70242 -58.86619 30670 ft 480 kts 69°
2026-05-08 00:28 49.72999 -58.77186 30671 ft 480 kts 69°
2026-05-08 00:28 49.75737 -58.67767 30670 ft 480 kts 69°
2026-05-08 00:29 49.78457 -58.58400 30678 ft 480 kts 69°
2026-05-08 00:29 49.81190 -58.48953 30676 ft 480 kts 70°
2026-05-08 00:30 49.83909 -58.39499 30678 ft 480 kts 70°
2026-05-08 00:30 49.86591 -58.30098 30681 ft 479 kts 70°
2026-05-08 00:31 49.89284 -58.20609 30680 ft 479 kts 70°
2026-05-08 00:31 49.91963 -58.11224 30684 ft 478 kts 70°
2026-05-08 00:32 49.94638 -58.01765 30682 ft 478 kts 70°
2026-05-08 00:32 49.97298 -57.92303 30679 ft 478 kts 70°
2026-05-08 00:33 49.99959 -57.82883 30679 ft 478 kts 70°
2026-05-08 00:33 50.02620 -57.73404 30683 ft 478 kts 70°
2026-05-08 00:34 50.05266 -57.63920 30684 ft 478 kts 70°
2026-05-08 00:34 50.07901 -57.54425 30681 ft 478 kts 70°
2026-05-08 00:35 50.10506 -57.44960 30685 ft 477 kts 71°
2026-05-08 00:35 50.13114 -57.35418 30685 ft 478 kts 71°
2026-05-08 00:36 50.15735 -57.25873 30691 ft 478 kts 70°
2026-05-08 00:36 50.18345 -57.16391 30688 ft 478 kts 71°
2026-05-08 00:37 50.20948 -57.06807 30703 ft 479 kts 70°
2026-05-08 00:38 50.24821 -56.92465 30706 ft 478 kts 71°
2026-05-08 00:38 50.27413 -56.82863 30710 ft 479 kts 70°
2026-05-08 00:39 50.30004 -56.73225 30710 ft 480 kts 70°
2026-05-08 00:39 50.32577 -56.63588 30711 ft 481 kts 70°
2026-05-08 00:40 50.35151 -56.53918 30709 ft 481 kts 70°
2026-05-08 00:40 50.37695 -56.44277 30708 ft 481 kts 70°
2026-05-08 00:41 50.40249 -56.34590 30710 ft 481 kts 70°
2026-05-08 00:41 50.42801 -56.24866 30708 ft 481 kts 70°
2026-05-08 00:42 50.45323 -56.15201 30709 ft 481 kts 70°
2026-05-08 00:42 50.47861 -56.05476 30711 ft 481 kts 70°
2026-05-08 00:43 50.50383 -55.95734 30729 ft 481 kts 70°
2026-05-08 00:43 50.52908 -55.85946 30740 ft 481 kts 70°
2026-05-08 00:44 50.55403 -55.76259 30738 ft 481 kts 71°
2026-05-08 00:44 50.57911 -55.66471 30739 ft 480 kts 71°
2026-05-08 00:45 50.60393 -55.56703 30743 ft 480 kts 71°
2026-05-08 00:45 50.61630 -55.51825 30871 ft 480 kts 71°
2026-05-08 00:45 50.62859 -55.46980 31113 ft 481 kts 71°
2026-05-08 00:45 50.64096 -55.42073 31324 ft 481 kts 71°
2026-05-08 00:46 50.65322 -55.37154 31551 ft 482 kts 71°
2026-05-08 00:46 50.66551 -55.32227 31766 ft 482 kts 71°
2026-05-08 00:46 50.67777 -55.27378 31960 ft 482 kts 71°
2026-05-08 00:46 50.69015 -55.22425 32159 ft 484 kts 71°
2026-05-08 00:47 50.70241 -55.17509 32372 ft 482 kts 71°
2026-05-08 00:47 50.71473 -55.12568 32536 ft 483 kts 71°
2026-05-08 00:47 50.72707 -55.07645 32692 ft 483 kts 71°
2026-05-08 00:47 50.73946 -55.02692 32794 ft 485 kts 71°
2026-05-08 00:48 50.75174 -54.97741 32791 ft 484 kts 71°
2026-05-08 00:48 50.77633 -54.87809 32759 ft 485 kts 71°
2026-05-08 00:49 50.80060 -54.77931 32749 ft 485 kts 71°
2026-05-08 00:49 50.82500 -54.67971 32751 ft 485 kts 71°
2026-05-08 00:50 50.84909 -54.58058 32750 ft 484 kts 71°
2026-05-08 00:50 50.87333 -54.48103 32767 ft 484 kts 71°
2026-05-08 00:51 50.89332 -54.39815 32782 ft 484 kts 71°
2026-05-08 00:51 50.91729 -54.29834 32779 ft 484 kts 71°
2026-05-08 00:52 50.94114 -54.19841 32781 ft 483 kts 71°
2026-05-08 00:52 50.96494 -54.09912 32788 ft 483 kts 71°
2026-05-08 00:53 50.98866 -53.99900 32783 ft 483 kts 71°
2026-05-08 00:53 51.01199 -53.89973 32783 ft 482 kts 71°
2026-05-08 00:54 51.03547 -53.79992 32788 ft 482 kts 71°
2026-05-08 00:54 51.05884 -53.69990 32794 ft 481 kts 71°
2026-05-08 00:55 51.08185 -53.60065 32793 ft 481 kts 71°
2026-05-08 00:55 51.10499 -53.50043 32789 ft 481 kts 71°
2026-05-08 00:56 51.12797 -53.40096 32794 ft 480 kts 71°
2026-05-08 00:56 51.15088 -53.30089 32801 ft 481 kts 71°
2026-05-08 00:57 51.17491 -53.20149 32801 ft 481 kts 68°
2026-05-08 00:57 51.20158 -53.10421 32794 ft 482 kts 67°
2026-05-08 00:58 51.22861 -53.00599 32791 ft 482 kts 68°
2026-05-08 00:58 51.25553 -52.90789 32792 ft 481 kts 68°
2026-05-08 00:59 51.28201 -52.81018 32790 ft 481 kts 68°
2026-05-08 00:59 51.30859 -52.71211 32791 ft 481 kts 68°
2026-05-08 01:00 51.33470 -52.61434 32773 ft 480 kts 68°
2026-05-08 01:00 51.36125 -52.51607 32760 ft 480 kts 68°
2026-05-08 01:01 51.38765 -52.41772 32759 ft 480 kts 68°
2026-05-08 01:01 51.41403 -52.31938 32759 ft 480 kts 67°
2026-05-08 01:02 51.44047 -52.22090 32760 ft 480 kts 68°
2026-05-08 01:02 51.46650 -52.12273 32759 ft 480 kts 68°
2026-05-08 01:03 51.49234 -52.02385 32760 ft 481 kts 68°
2026-05-08 01:03 51.51818 -51.92487 32760 ft 480 kts 68°
2026-05-08 01:04 51.54397 -51.82607 32767 ft 478 kts 68°
2026-05-08 01:04 51.56937 -51.72758 32769 ft 479 kts 68°
2026-05-08 01:05 51.59501 -51.62897 32767 ft 479 kts 68°
2026-05-08 01:05 51.62063 -51.52958 32768 ft 479 kts 69°
2026-05-08 01:06 51.64552 -51.42994 32769 ft 479 kts 69°
2026-05-08 01:06 51.67072 -51.33098 32770 ft 480 kts 68°
2026-05-08 01:07 51.69632 -51.23179 32771 ft 479 kts 68°
2026-05-08 01:07 51.72156 -51.13226 32770 ft 478 kts 68°
2026-05-08 01:08 51.74646 -51.03338 32804 ft 478 kts 68°
2026-05-08 01:08 51.77148 -50.93367 32810 ft 478 kts 68°
2026-05-08 01:09 51.79640 -50.83398 32811 ft 478 kts 68°
2026-05-08 01:09 51.82111 -50.73467 32810 ft 478 kts 68°
2026-05-08 01:10 51.84584 -50.63438 32809 ft 477 kts 68°
2026-05-08 01:10 51.87041 -50.53430 32815 ft 478 kts 68°
2026-05-08 01:11 51.89499 -50.43420 32820 ft 478 kts 68°
2026-05-08 01:11 51.91926 -50.33443 32820 ft 477 kts 68°
2026-05-08 01:12 51.94345 -50.23391 32820 ft 477 kts 68°
2026-05-08 01:12 51.96753 -50.13403 32821 ft 478 kts 68°
2026-05-08 01:13 51.99189 -50.03359 32835 ft 478 kts 68°
2026-05-08 01:13 52.01009 -49.93030 32833 ft 478 kts 76°
2026-05-08 01:14 52.02504 -49.82468 32826 ft 478 kts 77°
2026-05-08 01:14 52.04023 -49.71940 32830 ft 478 kts 77°
2026-05-08 01:15 52.05526 -49.61445 32831 ft 479 kts 77°
2026-05-08 01:15 52.07002 -49.50933 32842 ft 480 kts 77°
2026-05-08 01:16 52.08484 -49.40354 32844 ft 479 kts 77°
2026-05-08 01:16 52.09963 -49.29789 32839 ft 479 kts 77°
2026-05-08 01:17 52.11424 -49.19246 32841 ft 478 kts 78°
2026-05-08 01:17 52.12872 -49.08672 32840 ft 479 kts 78°
2026-05-08 01:18 52.14313 -48.98066 32848 ft 480 kts 78°
2026-05-08 01:18 52.15749 -48.87447 32849 ft 481 kts 78°
2026-05-08 01:19 52.17179 -48.76817 32849 ft 480 kts 78°
2026-05-08 01:19 52.18590 -48.66225 32849 ft 480 kts 78°
2026-05-08 01:20 52.19987 -48.55567 32854 ft 481 kts 78°
2026-05-08 01:20 52.21399 -48.44893 32860 ft 481 kts 78°
2026-05-08 01:21 52.22777 -48.34269 32860 ft 480 kts 79°
2026-05-08 01:21 52.24163 -48.23535 32860 ft 481 kts 79°
2026-05-08 01:22 52.25517 -48.12893 32861 ft 481 kts 79°
2026-05-08 01:22 52.26891 -48.02182 32862 ft 481 kts 79°
2026-05-08 01:23 52.28257 -47.91464 32869 ft 480 kts 79°
2026-05-08 01:23 52.29593 -47.80789 32871 ft 480 kts 79°
2026-05-08 01:24 52.30922 -47.70079 32870 ft 480 kts 79°
2026-05-08 01:24 52.32248 -47.59433 32871 ft 480 kts 79°
2026-05-08 01:25 52.33558 -47.48734 32871 ft 480 kts 79°
2026-05-08 01:25 52.34855 -47.38036 32874 ft 478 kts 79°
2026-05-08 01:26 52.36140 -47.27344 32870 ft 478 kts 79°
2026-05-08 01:26 52.37414 -47.16748 32876 ft 477 kts 79°
2026-05-08 01:27 52.38657 -47.06072 32881 ft 476 kts 80°
2026-05-08 01:27 52.39891 -46.95417 32880 ft 475 kts 80°
2026-05-08 01:28 52.41126 -46.84805 32879 ft 475 kts 79°
2026-05-08 01:28 52.42354 -46.74175 32877 ft 473 kts 79°
2026-05-08 01:29 52.43568 -46.63603 32880 ft 473 kts 79°
2026-05-08 01:29 52.44791 -46.53008 32889 ft 472 kts 79°
2026-05-08 01:30 52.45990 -46.42424 32902 ft 472 kts 80°
2026-05-08 01:30 52.47163 -46.31885 32885 ft 471 kts 80°
2026-05-08 01:31 52.48334 -46.21291 32893 ft 470 kts 80°
2026-05-08 01:31 52.49498 -46.10699 32888 ft 471 kts 80°
2026-05-08 01:32 52.50654 -46.00198 32900 ft 470 kts 80°
2026-05-08 01:32 52.51817 -45.89616 32902 ft 470 kts 80°
2026-05-08 01:33 52.52955 -45.79016 32898 ft 470 kts 80°
2026-05-08 01:33 52.54069 -45.68477 32893 ft 470 kts 80°
2026-05-08 01:34 52.55174 -45.57875 32905 ft 471 kts 80°
2026-05-08 01:34 52.56281 -45.47245 32896 ft 471 kts 80°
2026-05-08 01:35 52.57186 -45.38421 32909 ft 471 kts 80°
2026-05-08 01:35 52.58442 -45.26038 32931 ft 471 kts 80°
2026-05-08 01:36 52.59527 -45.15400 32978 ft 472 kts 80°
2026-05-08 01:36 52.60426 -45.06464 33014 ft 472 kts 80°
2026-05-08 01:37 52.61483 -44.95851 33058 ft 472 kts 81°
2026-05-08 01:37 52.62540 -44.85169 33071 ft 473 kts 81°
2026-05-08 01:38 52.63593 -44.74459 33071 ft 473 kts 81°
2026-05-08 01:38 52.64628 -44.63748 33071 ft 474 kts 81°
2026-05-08 01:39 52.65649 -44.53084 33070 ft 474 kts 81°
2026-05-08 01:39 52.66664 -44.42395 33078 ft 474 kts 81°
2026-05-08 01:40 52.67392 -44.31599 33067 ft 474 kts 94°
2026-05-08 01:40 52.66766 -44.26274 33074 ft 473 kts 109°
2026-05-08 01:40 52.65708 -44.21201 33078 ft 474 kts 105°
2026-05-08 01:40 52.65311 -44.15816 33076 ft 475 kts 88°
2026-05-08 01:41 52.65753 -44.10433 33087 ft 474 kts 77°
2026-05-08 01:41 52.67164 -43.99811 33084 ft 474 kts 79°
2026-05-08 01:42 52.68239 -43.89068 33081 ft 475 kts 81°
2026-05-08 01:42 52.69189 -43.78276 33080 ft 475 kts 81°
2026-05-08 01:43 52.70138 -43.67528 33079 ft 475 kts 81°
2026-05-08 01:43 52.71088 -43.56728 33081 ft 475 kts 81°
2026-05-08 01:44 52.72006 -43.45985 33080 ft 475 kts 81°
2026-05-08 01:44 52.72934 -43.35158 33080 ft 475 kts 81°
2026-05-08 01:45 52.73856 -43.24332 33080 ft 475 kts 81°
2026-05-08 01:45 52.74754 -43.13552 33083 ft 476 kts 81°
2026-05-08 01:46 52.75665 -43.02727 33088 ft 476 kts 81°
2026-05-08 01:46 52.76566 -42.91866 33090 ft 476 kts 81°
2026-05-08 01:47 52.77437 -42.81064 33091 ft 476 kts 81°
2026-05-08 01:47 52.78306 -42.70222 33090 ft 476 kts 81°
2026-05-08 01:48 52.79594 -42.53965 33092 ft 477 kts 81°
2026-05-08 01:48 52.80437 -42.43083 33090 ft 476 kts 82°
2026-05-08 01:49 52.81269 -42.32202 33090 ft 477 kts 82°
2026-05-08 01:49 52.82093 -42.21374 33089 ft 477 kts 82°
2026-05-08 01:50 52.82908 -42.10452 33091 ft 477 kts 82°
2026-05-08 01:50 52.83697 -41.99640 33091 ft 477 kts 82°
2026-05-08 01:51 52.84469 -41.88714 33088 ft 477 kts 82°
2026-05-08 01:51 52.85258 -41.77795 33092 ft 477 kts 81°
2026-05-08 01:52 52.86053 -41.66947 33090 ft 476 kts 82°
2026-05-08 01:52 52.86812 -41.56006 33092 ft 477 kts 82°
2026-05-08 01:53 52.87552 -41.45148 33091 ft 477 kts 82°
2026-05-08 01:53 52.88313 -41.34274 33098 ft 477 kts 82°
2026-05-08 01:54 52.89056 -41.23354 33102 ft 476 kts 82°
2026-05-08 01:54 52.89778 -41.12436 33099 ft 477 kts 82°
2026-05-08 01:55 52.90490 -41.01563 33101 ft 476 kts 82°
2026-05-08 01:55 52.91194 -40.90634 33102 ft 476 kts 82°
2026-05-08 01:56 52.91889 -40.79691 33102 ft 476 kts 82°
2026-05-08 01:56 52.92578 -40.68764 33102 ft 476 kts 82°
2026-05-08 01:57 52.93244 -40.57891 33099 ft 477 kts 82°
2026-05-08 01:57 52.93906 -40.46941 33100 ft 476 kts 82°
2026-05-08 01:58 52.94564 -40.36061 33101 ft 476 kts 82°
2026-05-08 01:58 52.95209 -40.25105 33100 ft 476 kts 82°
2026-05-08 01:59 52.95845 -40.14156 33100 ft 477 kts 82°
2026-05-08 01:59 52.96457 -40.03203 33098 ft 476 kts 83°
2026-05-08 02:00 52.96220 -39.92237 33103 ft 479 kts 94°
2026-05-08 02:00 52.95558 -39.81290 33098 ft 479 kts 94°
2026-05-08 02:01 52.94919 -39.70267 33101 ft 479 kts 93°
2026-05-08 02:01 52.94275 -39.59252 33100 ft 479 kts 94°
2026-05-08 02:02 52.93624 -39.48303 33096 ft 479 kts 94°
2026-05-08 02:02 52.92949 -39.37307 33100 ft 479 kts 94°
2026-05-08 02:03 52.92266 -39.26300 33099 ft 479 kts 94°
2026-05-08 02:03 52.91570 -39.15394 33101 ft 479 kts 94°
2026-05-08 02:04 52.90846 -39.04387 33100 ft 479 kts 94°
2026-05-08 02:04 52.90130 -38.93481 33102 ft 478 kts 94°
2026-05-08 02:05 52.89408 -38.82498 33101 ft 478 kts 94°
2026-05-08 02:05 52.88676 -38.71521 33091 ft 478 kts 94°
2026-05-08 02:06 52.87939 -38.60622 33090 ft 478 kts 94°
2026-05-08 02:06 52.87188 -38.49729 33089 ft 478 kts 94°
2026-05-08 02:07 52.86430 -38.38777 33091 ft 478 kts 94°
2026-05-08 02:07 52.85654 -38.27815 33090 ft 479 kts 94°
2026-05-08 02:08 52.84870 -38.16855 33092 ft 478 kts 94°
2026-05-08 02:08 52.84099 -38.05918 33098 ft 478 kts 94°
2026-05-08 02:09 52.83313 -37.95066 33096 ft 479 kts 94°
2026-05-08 02:09 52.82495 -37.84100 33092 ft 478 kts 94°
2026-05-08 02:10 52.81678 -37.73220 33095 ft 479 kts 95°
2026-05-08 02:10 52.80844 -37.62294 33095 ft 479 kts 94°
2026-05-08 02:11 52.79998 -37.51351 33100 ft 478 kts 94°
2026-05-08 02:11 52.79147 -37.40456 33097 ft 479 kts 94°
2026-05-08 02:12 52.78282 -37.29521 33102 ft 479 kts 94°
2026-05-08 02:12 52.77410 -37.18670 33103 ft 479 kts 94°
2026-05-08 02:13 52.76525 -37.07731 33097 ft 479 kts 94°
2026-05-08 02:13 52.75639 -36.96897 33110 ft 480 kts 94°
2026-05-08 02:14 52.74728 -36.85968 33106 ft 479 kts 95°
2026-05-08 02:14 52.73831 -36.75147 33108 ft 478 kts 95°
2026-05-08 02:15 52.72906 -36.64232 33109 ft 479 kts 95°
2026-05-08 02:15 52.71975 -36.53349 33108 ft 479 kts 95°
2026-05-08 02:16 52.71032 -36.42529 33099 ft 479 kts 95°
2026-05-08 02:16 52.70073 -36.31610 33106 ft 479 kts 95°
2026-05-08 02:17 52.69112 -36.20795 33103 ft 479 kts 95°
2026-05-08 02:17 52.68133 -36.09902 33101 ft 479 kts 95°
2026-05-08 02:18 52.67151 -35.99056 33102 ft 480 kts 95°
2026-05-08 02:18 52.66161 -35.88246 33108 ft 479 kts 95°
2026-05-08 02:19 52.65166 -35.77392 33110 ft 479 kts 95°
2026-05-08 02:19 52.64151 -35.66514 33110 ft 480 kts 95°
2026-05-08 02:20 52.63126 -35.55667 33110 ft 479 kts 95°
2026-05-08 02:20 52.62096 -35.44808 33106 ft 479 kts 95°
2026-05-08 02:21 52.61057 -35.34057 33102 ft 479 kts 95°
2026-05-08 02:21 52.60008 -35.23233 33100 ft 479 kts 95°
2026-05-08 02:22 52.58941 -35.12394 33102 ft 478 kts 95°
2026-05-08 02:22 52.57879 -35.01659 33097 ft 479 kts 95°
2026-05-08 02:23 52.56792 -34.90835 33101 ft 479 kts 95°
2026-05-08 02:23 52.55886 -34.81847 33101 ft 478 kts 95°
2026-05-08 02:24 52.54786 -34.71041 33101 ft 478 kts 96°
2026-05-08 02:24 52.53674 -34.60273 33098 ft 478 kts 96°
2026-05-08 02:25 52.52569 -34.49565 33102 ft 478 kts 95°
2026-05-08 02:25 52.51439 -34.38774 33107 ft 478 kts 96°
2026-05-08 02:26 52.50305 -34.27992 33113 ft 478 kts 96°
2026-05-08 02:26 52.49147 -34.17316 33112 ft 478 kts 96°
2026-05-08 02:27 52.47972 -34.06541 33110 ft 478 kts 96°
2026-05-08 02:27 52.46812 -33.95820 33109 ft 478 kts 96°
2026-05-08 02:28 52.45647 -33.85095 33100 ft 477 kts 96°
2026-05-08 02:28 52.44461 -33.74439 33106 ft 478 kts 96°
2026-05-08 02:29 52.43262 -33.63700 33109 ft 478 kts 96°
2026-05-08 02:29 52.42054 -33.52972 33110 ft 478 kts 96°
2026-05-08 02:30 52.40838 -33.42286 33111 ft 478 kts 96°
2026-05-08 02:30 52.39633 -33.31568 33110 ft 478 kts 96°
2026-05-08 02:31 52.38414 -33.20841 33110 ft 478 kts 96°
2026-05-08 02:31 52.37174 -33.10203 33111 ft 478 kts 97°
2026-05-08 02:32 52.35920 -32.99518 33108 ft 478 kts 96°
2026-05-08 02:32 52.34669 -32.88874 33109 ft 478 kts 96°
2026-05-08 02:33 52.33395 -32.78177 33110 ft 478 kts 97°
2026-05-08 02:33 52.32121 -32.67539 33110 ft 478 kts 96°
2026-05-08 02:34 52.30817 -32.56865 33112 ft 478 kts 97°
2026-05-08 02:34 52.29520 -32.46207 33112 ft 478 kts 96°
2026-05-08 02:35 52.28209 -32.35593 33109 ft 479 kts 97°
2026-05-08 02:35 52.26892 -32.24950 33109 ft 479 kts 97°
2026-05-08 02:36 52.25561 -32.14256 33110 ft 479 kts 97°
2026-05-08 02:36 52.24231 -32.03662 33108 ft 478 kts 97°
2026-05-08 02:37 52.22870 -31.93033 33110 ft 479 kts 97°
2026-05-08 02:37 52.21475 -31.82357 33111 ft 480 kts 97°
2026-05-08 02:38 52.20088 -31.71715 33110 ft 479 kts 97°
2026-05-08 02:38 52.18724 -31.61148 33111 ft 480 kts 97°
2026-05-08 02:39 52.17365 -31.50496 33109 ft 479 kts 97°
2026-05-08 02:39 52.15970 -31.39844 33110 ft 479 kts 97°
2026-05-08 02:40 52.14575 -31.29287 33108 ft 479 kts 97°
2026-05-08 02:40 52.13144 -31.18659 33109 ft 480 kts 97°
2026-05-08 02:41 52.11712 -31.08040 33111 ft 480 kts 98°
2026-05-08 02:41 52.10266 -30.97448 33110 ft 481 kts 98°
2026-05-08 02:42 52.08814 -30.86842 33111 ft 480 kts 97°
2026-05-08 02:42 52.07369 -30.76293 33112 ft 481 kts 97°
2026-05-08 02:43 52.05901 -30.65657 33113 ft 481 kts 98°
2026-05-08 02:43 52.04398 -30.55040 33111 ft 482 kts 97°
2026-05-08 02:44 52.02912 -30.44469 33110 ft 482 kts 97°
2026-05-08 02:44 52.01423 -30.33832 33109 ft 482 kts 98°
2026-05-08 02:45 51.99900 -30.23206 33112 ft 484 kts 98°
2026-05-08 02:45 51.98369 -30.12573 33109 ft 483 kts 98°
2026-05-08 02:46 51.96828 -30.02004 33110 ft 483 kts 98°
2026-05-08 02:46 51.95253 -29.91375 33108 ft 484 kts 98°
2026-05-08 02:47 51.93647 -29.80829 33111 ft 484 kts 98°
2026-05-08 02:47 51.92030 -29.70241 33109 ft 484 kts 99°
2026-05-08 02:48 51.90394 -29.59660 33110 ft 484 kts 99°
2026-05-08 02:48 51.88771 -29.49147 33109 ft 483 kts 99°
2026-05-08 02:49 51.87118 -29.38573 33109 ft 482 kts 99°
2026-05-08 02:49 51.85476 -29.28121 33111 ft 483 kts 99°
2026-05-08 02:50 51.83829 -29.17571 33110 ft 481 kts 99°
2026-05-08 02:50 51.82179 -29.07080 33109 ft 481 kts 99°
2026-05-08 02:51 51.80503 -28.96660 33109 ft 481 kts 100°
2026-05-08 02:51 51.78836 -28.86190 33110 ft 480 kts 99°
2026-05-08 02:52 51.77141 -28.75743 33109 ft 480 kts 100°
2026-05-08 02:52 51.75427 -28.65319 33110 ft 480 kts 101°
2026-05-08 02:53 51.73732 -28.54935 33112 ft 480 kts 100°
2026-05-08 02:53 51.72030 -28.44514 33111 ft 479 kts 100°
2026-05-08 02:54 51.70321 -28.34184 33112 ft 478 kts 101°
2026-05-08 02:54 51.68602 -28.23806 33113 ft 478 kts 101°
2026-05-08 02:55 51.65997 -28.08309 33111 ft 478 kts 101°
2026-05-08 02:56 51.64245 -27.97972 33111 ft 478 kts 101°
2026-05-08 02:56 51.62481 -27.87610 33109 ft 478 kts 101°
2026-05-08 02:57 51.60710 -27.77329 33110 ft 477 kts 101°
2026-05-08 02:57 51.58944 -27.67058 33107 ft 478 kts 102°
2026-05-08 02:58 51.57153 -27.56768 33109 ft 478 kts 102°
2026-05-08 02:58 51.55383 -27.46467 33110 ft 478 kts 102°
2026-05-08 02:59 51.53566 -27.36172 33109 ft 477 kts 102°
2026-05-08 02:59 51.51772 -27.25961 33111 ft 477 kts 102°
2026-05-08 03:00 51.49952 -27.15691 33111 ft 477 kts 103°
2026-05-08 03:00 51.48123 -27.05524 33110 ft 476 kts 102°
2026-05-08 03:01 51.46296 -26.95288 33094 ft 476 kts 103°
2026-05-08 03:01 51.44464 -26.85094 33084 ft 475 kts 103°
2026-05-08 03:02 51.42640 -26.74916 33083 ft 474 kts 103°
2026-05-08 03:02 51.40802 -26.64821 33081 ft 474 kts 103°
2026-05-08 03:03 51.38947 -26.54678 33076 ft 474 kts 103°
2026-05-08 03:03 51.37071 -26.44606 33078 ft 474 kts 104°
2026-05-08 03:04 51.35166 -26.34493 33083 ft 473 kts 103°
2026-05-08 03:04 51.33317 -26.24429 33078 ft 472 kts 104°
2026-05-08 03:05 51.31420 -26.14341 33079 ft 473 kts 104°
2026-05-08 03:05 51.29528 -26.04272 33081 ft 473 kts 104°
2026-05-08 03:06 51.27621 -25.94199 33081 ft 472 kts 104°
2026-05-08 03:06 51.25716 -25.84232 33083 ft 467 kts 105°
2026-05-08 03:07 51.23819 -25.74357 33078 ft 467 kts 105°
2026-05-08 03:07 51.21911 -25.64408 33080 ft 468 kts 105°
2026-05-08 03:08 51.19993 -25.54540 33081 ft 467 kts 105°
2026-05-08 03:08 51.18064 -25.44628 33080 ft 468 kts 105°
2026-05-08 03:09 51.16156 -25.34772 33080 ft 467 kts 105°
2026-05-08 03:09 51.14214 -25.24866 33081 ft 468 kts 105°
2026-05-08 03:10 51.12586 -25.16652 33079 ft 467 kts 106°
2026-05-08 03:10 51.10298 -25.05172 33070 ft 467 kts 105°
2026-05-08 03:11 51.08654 -24.96961 33070 ft 467 kts 106°
2026-05-08 03:11 51.06708 -24.87118 33069 ft 466 kts 106°
2026-05-08 03:12 51.04717 -24.77300 33068 ft 467 kts 107°
2026-05-08 03:12 51.02713 -24.67458 33070 ft 466 kts 106°
2026-05-08 03:13 51.00759 -24.57703 33069 ft 466 kts 107°
2026-05-08 03:13 50.98747 -24.47903 33065 ft 466 kts 107°
2026-05-08 03:14 50.96746 -24.38114 33062 ft 466 kts 107°
2026-05-08 03:14 50.94741 -24.28374 33060 ft 466 kts 107°
2026-05-08 03:15 50.92727 -24.18620 33060 ft 466 kts 107°
2026-05-08 03:15 50.90680 -24.08855 33059 ft 465 kts 107°
2026-05-08 03:16 50.88633 -23.99167 33060 ft 466 kts 107°
2026-05-08 03:16 50.86611 -23.89488 33060 ft 464 kts 108°
2026-05-08 03:17 50.84553 -23.79815 33060 ft 464 kts 108°
2026-05-08 03:17 50.82477 -23.70101 33059 ft 464 kts 108°
2026-05-08 03:18 50.80429 -23.60407 33059 ft 464 kts 108°
2026-05-08 03:18 50.78360 -23.50808 33058 ft 464 kts 108°
2026-05-08 03:19 50.76294 -23.41117 33051 ft 464 kts 108°
2026-05-08 03:19 50.74215 -23.31498 33053 ft 464 kts 108°
2026-05-08 03:20 50.72115 -23.21851 33052 ft 464 kts 109°
2026-05-08 03:20 50.70020 -23.12282 33050 ft 464 kts 109°
2026-05-08 03:21 50.67885 -23.02683 33051 ft 463 kts 109°
2026-05-08 03:21 50.65759 -22.93048 33052 ft 463 kts 109°
2026-05-08 03:22 50.63634 -22.83525 33047 ft 463 kts 109°
2026-05-08 03:22 50.61508 -22.73939 33050 ft 463 kts 109°
2026-05-08 03:23 50.59422 -22.64392 33051 ft 463 kts 109°
2026-05-08 03:23 50.57265 -22.54837 33056 ft 462 kts 110°
2026-05-08 03:24 50.55102 -22.45301 33070 ft 462 kts 110°
2026-05-08 03:24 50.52958 -22.35846 33070 ft 462 kts 110°
2026-05-08 03:25 50.50816 -22.26329 33053 ft 462 kts 110°
2026-05-08 03:25 50.48635 -22.16803 33013 ft 462 kts 110°
2026-05-08 03:26 50.46467 -22.07364 33000 ft 461 kts 111°
2026-05-08 03:26 50.44265 -21.97894 33001 ft 461 kts 110°
2026-05-08 03:27 50.42095 -21.88419 32998 ft 461 kts 111°
2026-05-08 03:27 50.39917 -21.79028 32998 ft 461 kts 111°
2026-05-08 03:28 50.37704 -21.69571 33000 ft 461 kts 111°
2026-05-08 03:28 50.35483 -21.60136 33004 ft 461 kts 111°
2026-05-08 03:29 50.33274 -21.50765 32986 ft 461 kts 111°
2026-05-08 03:29 50.31042 -21.41359 32992 ft 460 kts 111°
2026-05-08 03:30 50.27651 -21.27290 32982 ft 460 kts 112°
2026-05-08 03:31 50.23143 -21.08598 32984 ft 460 kts 112°
2026-05-08 03:32 50.19778 -20.94626 32996 ft 460 kts 113°
2026-05-08 03:32 50.17527 -20.85257 32987 ft 459 kts 112°
2026-05-08 03:33 50.15270 -20.75917 32994 ft 459 kts 112°
2026-05-08 03:33 50.13008 -20.66664 32997 ft 458 kts 112°
2026-05-08 03:34 50.10728 -20.57369 32983 ft 458 kts 113°
2026-05-08 03:34 50.08386 -20.48127 32987 ft 458 kts 114°
2026-05-08 03:35 50.06091 -20.38924 32993 ft 458 kts 114°
2026-05-08 03:35 50.03818 -20.29658 32995 ft 457 kts 114°
2026-05-08 03:36 50.01502 -20.20433 32981 ft 457 kts 115°
2026-05-08 03:36 49.99181 -20.11293 32979 ft 457 kts 114°
2026-05-08 03:37 49.96899 -20.02054 32978 ft 458 kts 111°
2026-05-08 03:37 49.95154 -19.92562 32976 ft 459 kts 108°
2026-05-08 03:38 49.93461 -19.82973 32982 ft 459 kts 108°
2026-05-08 03:38 49.91774 -19.73368 32988 ft 460 kts 108°
2026-05-08 03:39 49.90129 -19.63848 32982 ft 459 kts 108°
2026-05-08 03:39 49.88408 -19.54287 32987 ft 460 kts 108°
2026-05-08 03:40 49.86682 -19.44744 32983 ft 458 kts 109°
2026-05-08 03:40 49.84986 -19.35265 32985 ft 457 kts 109°
2026-05-08 03:41 49.83240 -19.25749 32984 ft 459 kts 109°
2026-05-08 03:41 49.81513 -19.16322 32984 ft 457 kts 109°
2026-05-08 03:42 49.79749 -19.06842 32980 ft 458 kts 109°
2026-05-08 03:42 49.77999 -18.97349 32986 ft 458 kts 109°
2026-05-08 03:43 49.76237 -18.87930 32979 ft 458 kts 109°
2026-05-08 03:43 49.74473 -18.78430 32980 ft 458 kts 109°
2026-05-08 03:44 49.72708 -18.69007 32973 ft 457 kts 109°
2026-05-08 03:44 49.70931 -18.59542 32979 ft 458 kts 109°
2026-05-08 03:45 49.69122 -18.50075 32978 ft 458 kts 110°
2026-05-08 03:45 49.67328 -18.40673 32973 ft 458 kts 110°
2026-05-08 03:46 49.65529 -18.31231 32971 ft 458 kts 110°
2026-05-08 03:46 49.63707 -18.21759 32970 ft 458 kts 110°
2026-05-08 03:47 49.61930 -18.12353 32969 ft 459 kts 110°
2026-05-08 03:47 49.60113 -18.02896 32971 ft 459 kts 110°
2026-05-08 03:48 49.58289 -17.93521 32972 ft 459 kts 110°
2026-05-08 03:48 49.56450 -17.84088 32968 ft 459 kts 110°
2026-05-08 03:49 49.54602 -17.74687 32969 ft 458 kts 110°
2026-05-08 03:49 49.52733 -17.65299 32971 ft 458 kts 110°
2026-05-08 03:50 49.50883 -17.55974 32965 ft 458 kts 110°
2026-05-08 03:50 49.49017 -17.46614 32969 ft 458 kts 110°
2026-05-08 03:51 49.47127 -17.37270 32965 ft 457 kts 111°
2026-05-08 03:51 49.45252 -17.27988 32958 ft 457 kts 110°
2026-05-08 03:52 49.43372 -17.18677 32961 ft 456 kts 111°
2026-05-08 03:52 49.41468 -17.09354 32962 ft 456 kts 111°
2026-05-08 03:53 49.39567 -17.00073 32959 ft 456 kts 111°
2026-05-08 03:53 49.37652 -16.90837 32960 ft 456 kts 111°
2026-05-08 03:54 49.35744 -16.81559 32962 ft 456 kts 111°
2026-05-08 03:54 49.33810 -16.72272 32961 ft 456 kts 111°
2026-05-08 03:55 49.31895 -16.63043 32962 ft 456 kts 111°
2026-05-08 03:55 49.29951 -16.53765 32961 ft 457 kts 111°
2026-05-08 03:56 49.28021 -16.44493 32958 ft 456 kts 111°
2026-05-08 03:56 49.26071 -16.35297 32955 ft 456 kts 111°
2026-05-08 03:57 49.24105 -16.26067 32959 ft 456 kts 111°
2026-05-08 03:57 49.22128 -16.16811 32957 ft 456 kts 111°
2026-05-08 03:58 49.20170 -16.07643 32958 ft 456 kts 111°
2026-05-08 03:58 49.18193 -15.98416 32962 ft 456 kts 111°
2026-05-08 03:59 49.16534 -15.90744 32959 ft 455 kts 111°
2026-05-08 03:59 49.14537 -15.81543 32958 ft 456 kts 111°
2026-05-08 04:00 49.12545 -15.72392 32956 ft 456 kts 111°
2026-05-08 04:00 49.10520 -15.63202 32959 ft 455 kts 112°
2026-05-08 04:01 49.08521 -15.54093 32958 ft 455 kts 112°
2026-05-08 04:01 49.06490 -15.44914 32958 ft 455 kts 112°
2026-05-08 04:02 49.04453 -15.35760 32962 ft 455 kts 112°
2026-05-08 04:02 49.02434 -15.26648 32959 ft 455 kts 112°
2026-05-08 04:03 49.00387 -15.17499 32959 ft 455 kts 112°
2026-05-08 04:03 48.97352 -15.03837 32959 ft 456 kts 109°
2026-05-08 04:04 48.96625 -14.94181 32960 ft 463 kts 92°
2026-05-08 04:04 48.96745 -14.84357 32960 ft 463 kts 92°
2026-05-08 04:05 48.96836 -14.74608 32961 ft 463 kts 92°
2026-05-08 04:05 48.96882 -14.64775 32958 ft 463 kts 92°
2026-05-08 04:06 48.96928 -14.54962 32961 ft 463 kts 91°
2026-05-08 04:06 48.96971 -14.45177 32955 ft 463 kts 92°
2026-05-08 04:07 48.97014 -14.35335 32959 ft 464 kts 92°
2026-05-08 04:07 48.97036 -14.25572 32952 ft 464 kts 92°
2026-05-08 04:08 48.97069 -14.15746 32953 ft 463 kts 92°
2026-05-08 04:08 48.97073 -14.05935 32960 ft 463 kts 93°
2026-05-08 04:09 48.97025 -13.96143 32958 ft 463 kts 93°
2026-05-08 04:09 48.97020 -13.86329 32961 ft 464 kts 92°
2026-05-08 04:10 48.97014 -13.76494 32962 ft 464 kts 93°
2026-05-08 04:10 48.96971 -13.66733 32960 ft 464 kts 93°
2026-05-08 04:11 48.96935 -13.56877 32960 ft 464 kts 93°
2026-05-08 04:11 48.96910 -13.47114 32961 ft 464 kts 92°
2026-05-08 04:12 48.96904 -13.37288 32962 ft 463 kts 94°
2026-05-08 04:12 48.96834 -13.27452 32959 ft 463 kts 94°
2026-05-08 04:13 48.96754 -13.17671 32963 ft 464 kts 93°
2026-05-08 04:13 48.96683 -13.07892 32962 ft 464 kts 93°
2026-05-08 04:14 48.96673 -12.98030 32958 ft 466 kts 90°
2026-05-08 04:14 48.96880 -12.88169 32958 ft 465 kts 91°
2026-05-08 04:15 48.97065 -12.78372 32959 ft 466 kts 91°
2026-05-08 04:15 48.97239 -12.68489 32961 ft 466 kts 91°
2026-05-08 04:16 48.97418 -12.58888 32961 ft 467 kts 91°
2026-05-08 04:16 48.97597 -12.48991 32962 ft 466 kts 91°
2026-05-08 04:17 48.97767 -12.39190 32962 ft 466 kts 91°
2026-05-08 04:17 48.97935 -12.29302 32962 ft 466 kts 91°
2026-05-08 04:18 48.98080 -12.19434 32961 ft 467 kts 91°
2026-05-08 04:18 48.98223 -12.09767 32960 ft 466 kts 91°
2026-05-08 04:19 48.98346 -11.99900 32960 ft 466 kts 91°
2026-05-08 04:19 48.98471 -11.89995 32958 ft 467 kts 91°
2026-05-08 04:20 48.98601 -11.80139 32960 ft 467 kts 91°
2026-05-08 04:20 48.98706 -11.70227 32960 ft 468 kts 91°
2026-05-08 04:21 48.98801 -11.60359 32960 ft 467 kts 92°
2026-05-08 04:21 48.98885 -11.50447 32959 ft 468 kts 91°
2026-05-08 04:22 48.98959 -11.40533 32959 ft 468 kts 91°
2026-05-08 04:22 48.99039 -11.30666 32960 ft 468 kts 91°
2026-05-08 04:23 48.99109 -11.20742 32963 ft 468 kts 91°
2026-05-08 04:23 48.99177 -11.10823 32959 ft 468 kts 91°
2026-05-08 04:24 48.99234 -11.00909 32961 ft 469 kts 91°
2026-05-08 04:24 48.99264 -10.90995 32959 ft 468 kts 92°
2026-05-08 04:25 48.99294 -10.81058 32956 ft 469 kts 91°
2026-05-08 04:25 48.99321 -10.71163 32963 ft 468 kts 91°
2026-05-08 04:26 48.99335 -10.61222 32960 ft 469 kts 91°
2026-05-08 04:26 48.99348 -10.51291 32959 ft 469 kts 91°
2026-05-08 04:27 48.99318 -10.41387 32970 ft 470 kts 92°
2026-05-08 04:27 48.99292 -10.31470 33000 ft 470 kts 91°
2026-05-08 04:28 48.99285 -10.21506 33000 ft 470 kts 91°
2026-05-08 04:28 48.99277 -10.11521 33001 ft 470 kts 92°
2026-05-08 04:29 48.99213 -10.01619 33000 ft 470 kts 92°
2026-05-08 04:29 48.99164 -9.91647 32999 ft 471 kts 91°
2026-05-08 04:30 48.99121 -9.81727 33001 ft 471 kts 91°
2026-05-08 04:30 48.99049 -9.71714 33003 ft 471 kts 92°
2026-05-08 04:31 48.98978 -9.61793 32998 ft 470 kts 92°
2026-05-08 04:31 48.98898 -9.51779 32995 ft 471 kts 92°
2026-05-08 04:32 48.98806 -9.41849 32993 ft 472 kts 92°
2026-05-08 04:32 48.98709 -9.31834 32990 ft 471 kts 91°
2026-05-08 04:33 48.98609 -9.21836 32997 ft 472 kts 92°
2026-05-08 04:33 48.98490 -9.11905 32995 ft 472 kts 92°
2026-05-08 04:34 48.98381 -9.01935 32993 ft 472 kts 92°
2026-05-08 04:34 48.98253 -8.91938 32995 ft 471 kts 92°
2026-05-08 04:35 48.98117 -8.81908 32980 ft 473 kts 92°
2026-05-08 04:35 48.97965 -8.71953 32981 ft 472 kts 92°
2026-05-08 04:36 48.97804 -8.61922 32985 ft 473 kts 92°
2026-05-08 04:36 48.97639 -8.51965 32987 ft 473 kts 92°
2026-05-08 04:37 48.97461 -8.41941 32986 ft 472 kts 92°
2026-05-08 04:37 48.97284 -8.31916 32967 ft 472 kts 92°
2026-05-08 04:38 48.97100 -8.21946 32974 ft 473 kts 92°
2026-05-08 04:38 48.96888 -8.11936 32971 ft 473 kts 92°
2026-05-08 04:39 48.96670 -8.01897 32973 ft 473 kts 92°
2026-05-08 04:39 48.96723 -7.91924 32981 ft 474 kts 89°
2026-05-08 04:40 48.96842 -7.81881 32972 ft 473 kts 89°
2026-05-08 04:40 48.96942 -7.71844 32965 ft 474 kts 89°
2026-05-08 04:41 48.97031 -7.61857 32968 ft 473 kts 89°
2026-05-08 04:41 48.96954 -7.51796 32966 ft 474 kts 97°
2026-05-08 04:42 48.96283 -7.46934 32967 ft 473 kts 108°
2026-05-08 04:42 48.95205 -7.42198 32975 ft 473 kts 111°
2026-05-08 04:42 48.92905 -7.32808 32972 ft 473 kts 111°
2026-05-08 04:43 48.90649 -7.23452 32969 ft 473 kts 110°
2026-05-08 04:43 48.88428 -7.14147 32965 ft 465 kts 110°
2026-05-08 04:44 48.86215 -7.04955 32975 ft 465 kts 111°
2026-05-08 04:44 48.83980 -6.95706 32981 ft 465 kts 111°
2026-05-08 04:45 48.81757 -6.86517 32984 ft 465 kts 111°
2026-05-08 04:45 48.79501 -6.77308 32977 ft 465 kts 111°
2026-05-08 04:46 48.77282 -6.68155 32975 ft 465 kts 110°
2026-05-08 04:46 48.75408 -6.60498 32978 ft 465 kts 111°
2026-05-08 04:47 48.73143 -6.51278 32984 ft 466 kts 111°
2026-05-08 04:47 48.70858 -6.42084 32978 ft 465 kts 111°
2026-05-08 04:48 48.68580 -6.32913 32981 ft 466 kts 111°
2026-05-08 04:48 48.66294 -6.23765 32979 ft 467 kts 111°
2026-05-08 04:49 48.63991 -6.14564 32976 ft 466 kts 111°
2026-05-08 04:49 48.61694 -6.05441 32983 ft 466 kts 111°
2026-05-08 04:50 48.59378 -5.96266 32980 ft 466 kts 111°
2026-05-08 04:50 48.57054 -5.87117 32977 ft 465 kts 111°
2026-05-08 04:51 48.54745 -5.78058 32983 ft 465 kts 111°
2026-05-08 04:51 48.52407 -5.68933 32977 ft 465 kts 111°
2026-05-08 04:52 48.50079 -5.59873 32993 ft 466 kts 111°
2026-05-08 04:52 48.47735 -5.50771 32987 ft 465 kts 111°
2026-05-08 04:53 48.45373 -5.41660 33000 ft 465 kts 111°
2026-05-08 04:53 48.43025 -5.32615 32993 ft 466 kts 111°
2026-05-08 04:54 48.40662 -5.23526 32997 ft 465 kts 111°
2026-05-08 04:54 48.38279 -5.14468 32996 ft 464 kts 112°
2026-05-08 04:55 48.35906 -5.05445 32994 ft 465 kts 111°
2026-05-08 04:55 48.33520 -4.96448 32986 ft 465 kts 111°
2026-05-08 04:56 48.31113 -4.87396 32992 ft 465 kts 112°
2026-05-08 04:56 48.28786 -4.78327 32983 ft 465 kts 110°
2026-05-08 04:57 48.26540 -4.69203 32994 ft 466 kts 110°
2026-05-08 04:57 48.24263 -4.60146 32983 ft 466 kts 111°
2026-05-08 04:58 48.21949 -4.51048 32987 ft 467 kts 110°
2026-05-08 04:58 48.19622 -4.41960 32984 ft 467 kts 111°
2026-05-08 04:59 48.17286 -4.32845 32982 ft 468 kts 111°
2026-05-08 04:59 48.14943 -4.23738 32988 ft 468 kts 111°
2026-05-08 05:00 48.12595 -4.14705 32980 ft 468 kts 111°
2026-05-08 05:00 48.10238 -4.05608 32975 ft 468 kts 111°
2026-05-08 05:01 48.07867 -3.96497 32974 ft 469 kts 111°
2026-05-08 05:01 48.05503 -3.87446 32972 ft 469 kts 111°
2026-05-08 05:02 48.03126 -3.78337 32974 ft 468 kts 111°
2026-05-08 05:02 48.00753 -3.69274 32966 ft 468 kts 111°
2026-05-08 05:03 47.98355 -3.60231 32968 ft 468 kts 111°
2026-05-08 05:03 47.95953 -3.51265 32971 ft 467 kts 111°
2026-05-08 05:04 47.93547 -3.42237 32971 ft 467 kts 111°
2026-05-08 05:04 47.91155 -3.33285 32943 ft 465 kts 112°
2026-05-08 05:05 47.89953 -3.28800 32061 ft 468 kts 111°
2026-05-08 05:05 47.88728 -3.24254 30821 ft 477 kts 111°
2026-05-08 05:05 47.87477 -3.19622 29756 ft 482 kts 112°
2026-05-08 05:05 47.86220 -3.14996 28998 ft 478 kts 112°
2026-05-08 05:06 47.84981 -3.10433 28393 ft 471 kts 112°
2026-05-08 05:06 47.83760 -3.05924 27705 ft 465 kts 112°
2026-05-08 05:06 47.82576 -3.01546 27090 ft 458 kts 112°
2026-05-08 05:06 47.81389 -2.97181 26397 ft 451 kts 112°
2026-05-08 05:07 47.80219 -2.92873 25741 ft 446 kts 112°
2026-05-08 05:07 47.79064 -2.88629 25142 ft 439 kts 113°
2026-05-08 05:07 47.77916 -2.84424 24451 ft 435 kts 113°
2026-05-08 05:07 47.76801 -2.80339 23842 ft 428 kts 113°
2026-05-08 05:08 47.75696 -2.76260 23154 ft 423 kts 113°
2026-05-08 05:08 47.74594 -2.72215 22482 ft 418 kts 113°
2026-05-08 05:08 47.73500 -2.68228 21814 ft 414 kts 114°
2026-05-08 05:08 47.72414 -2.64287 21187 ft 409 kts 114°
2026-05-08 05:09 47.71335 -2.60395 20519 ft 405 kts 114°
2026-05-08 05:09 47.70263 -2.56537 19843 ft 402 kts 114°
2026-05-08 05:09 47.69217 -2.52772 19207 ft 398 kts 114°
2026-05-08 05:09 47.67939 -2.49176 18551 ft 391 kts 127°
2026-05-08 05:10 47.66257 -2.46022 17943 ft 386 kts 131°
2026-05-08 05:10 47.62819 -2.39997 16561 ft 378 kts 131°
2026-05-08 05:10 47.61137 -2.37028 15846 ft 373 kts 131°
2026-05-08 05:11 47.59490 -2.34119 15324 ft 362 kts 131°
2026-05-08 05:11 47.57901 -2.31304 14867 ft 350 kts 131°
2026-05-08 05:11 47.56355 -2.28565 14441 ft 344 kts 131°
2026-05-08 05:11 47.54835 -2.25881 14011 ft 344 kts 131°
2026-05-08 05:12 47.53294 -2.23165 13563 ft 346 kts 131°
2026-05-08 05:12 47.51743 -2.20433 13135 ft 345 kts 131°
2026-05-08 05:12 47.50182 -2.17727 12714 ft 346 kts 132°
2026-05-08 05:12 47.48584 -2.15055 12276 ft 345 kts 132°
2026-05-08 05:13 47.46988 -2.12393 11809 ft 346 kts 132°
2026-05-08 05:13 47.45392 -2.09734 11341 ft 346 kts 132°
2026-05-08 05:13 47.43797 -2.07099 10905 ft 339 kts 134°
2026-05-08 05:13 47.41973 -2.05067 10601 ft 326 kts 151°
2026-05-08 05:14 47.39960 -2.03613 10283 ft 316 kts 156°
2026-05-08 05:14 47.37986 -2.02275 9937 ft 308 kts 156°
2026-05-08 05:14 47.36058 -2.00957 9598 ft 301 kts 155°
2026-05-08 05:14 47.34212 -1.99679 9280 ft 294 kts 155°
2026-05-08 05:15 47.32378 -1.98405 8945 ft 288 kts 155°
2026-05-08 05:15 47.30587 -1.97157 8615 ft 283 kts 155°
2026-05-08 05:15 47.28804 -1.95912 8290 ft 281 kts 155°
2026-05-08 05:15 47.27032 -1.94674 7970 ft 280 kts 155°
2026-05-08 05:16 47.25400 -1.93533 7659 ft 278 kts 155°
2026-05-08 05:16 47.23649 -1.92308 7334 ft 277 kts 155°
2026-05-08 05:16 47.21933 -1.91111 7016 ft 276 kts 155°
2026-05-08 05:16 47.20198 -1.89898 6680 ft 274 kts 155°
2026-05-08 05:17 47.18492 -1.88715 6348 ft 267 kts 155°
2026-05-08 05:17 47.16827 -1.87570 6032 ft 262 kts 155°
2026-05-08 05:17 47.15185 -1.86425 5705 ft 258 kts 154°
2026-05-08 05:17 47.13601 -1.85317 5383 ft 254 kts 154°
2026-05-08 05:18 47.12015 -1.84208 5040 ft 250 kts 154°
2026-05-08 05:18 47.10455 -1.83126 4711 ft 247 kts 154°
2026-05-08 05:18 47.08910 -1.82055 4370 ft 244 kts 154°
2026-05-08 05:18 47.07355 -1.81078 4038 ft 241 kts 164°
2026-05-08 05:19 47.05719 -1.80821 3706 ft 239 kts 184°
2026-05-08 05:19 47.04084 -1.81195 3382 ft 236 kts 192°
2026-05-08 05:19 47.02499 -1.81820 3080 ft 234 kts 193°
2026-05-08 05:19 47.00949 -1.81852 2956 ft 214 kts 162°
2026-05-08 05:20 46.99732 -1.80776 2958 ft 205 kts 129°
2026-05-08 05:20 46.99133 -1.78938 2982 ft 207 kts 98°
2026-05-08 05:20 46.99200 -1.76880 3025 ft 192 kts 82°
2026-05-08 05:20 46.99423 -1.75043 3028 ft 170 kts 81°
2026-05-08 05:21 46.99841 -1.73510 3007 ft 163 kts 61°
2026-05-08 05:21 47.00652 -1.72319 3004 ft 168 kts 37°
2026-05-08 05:21 47.01666 -1.71470 2855 ft 168 kts 28°
2026-05-08 05:21 47.02705 -1.70692 2652 ft 167 kts 28°
2026-05-08 05:22 47.03731 -1.69913 2417 ft 166 kts 28°
2026-05-08 05:22 47.04750 -1.69138 2187 ft 163 kts 28°
2026-05-08 05:22 47.05759 -1.68369 1962 ft 163 kts 28°
2026-05-08 05:22 47.06757 -1.67608 1731 ft 163 kts 27°
2026-05-08 05:23 47.07752 -1.66852 1521 ft 156 kts 26°
2026-05-08 05:23 47.08632 -1.66181 1298 ft 137 kts 27°
2026-05-08 05:23 47.09490 -1.65526 1122 ft 137 kts 27°
2026-05-08 05:23 47.10321 -1.64889 956 ft 135 kts 27°
2026-05-08 05:24 47.11167 -1.64244 780 ft 139 kts 29°
2026-05-08 05:24 47.12012 -1.63601 596 ft 138 kts 26°
2026-05-08 05:24 47.12853 -1.62946 415 ft 136 kts 28°
2026-05-08 05:24 47.13681 -1.62328 240 ft 136 kts 26°
2026-05-08 05:25 47.14526 -1.61681 100 ft 134 kts 27°
2026-05-08 05:25 47.15272 -1.61107 95 ft 94 kts 28°
2026-05-08 05:25 47.15657 -1.60811 91 ft 23 kts 26°
2026-05-08 05:25 47.15646 -1.60658 94 ft 19 kts 130°
2026-05-08 05:26 47.15603 -1.60574 95 ft 10 kts 125°
2026-05-08 05:26 47.15554 -1.60474 97 ft 14 kts 125°
2026-05-08 05:26 47.15512 -1.60382 98 ft 4 kts 101°
2026-05-08 05:26 47.15523 -1.60339 96 ft 5 kts 68°
2026-05-08 05:27 47.15547 -1.60291 97 ft 7 kts 38°
2026-05-08 05:27 47.15586 -1.60238 95 ft 9 kts 59°
2026-05-08 05:27 47.15601 -1.60189 97 ft 4 kts 57°
2026-05-08 05:27 47.15632 -1.60190 95 ft 6 kts 31°
2026-05-08 05:28 47.15646 -1.60161 95 ft 0 kts 59°